Tracking 19905 objects as of 18-Oct-2019
HD Live streaming from Space Station
objects crossing your sky now

CORVUS BC1

Track CORVUS BC1 now!
10-day predictions


NORAD ID: 42847
Int'l Code: 2017-042Y
Perigee: 591.7 km
Apogee: 605.3 km
Inclination: 97.5 °
Period: 96.5 minutes
Semi major axis: 6969 km
RCS: Unknown
Launch date: July 14, 2017
Source: United States (US)
Launch site: TYURATAM MISSILE AND SPACE COMPLEX (TTMTR)
aabbcc
Your satellite tracking list
Your tracking list is empty




NASA's NSSDC Master Catalog

Two Line Element Set (TLE):
1 42847U 17042Y   19290.74580073 -.00000038  00000-0  14694-5 0  9995
2 42847  97.5492 179.9428 0009765  19.9329 340.2270 14.92111571123065
Source of the keplerian elements: AFSPC